Ypsilanti, MI

6:25 PM EST on December 08, 2016 (GMT -0500)
Willow Run

Weather History for KYIP - April, 2014

Change the Weather History Date:

Sunday, April 27, 2014

  Actual Average Record
Temperature  
Mean Temperature 46 °F -  
Max Temperature 57 °F 66 °F 85 °F (1986)
Min Temperature 35 °F 42 °F 29 °F (1971)
Degree Days  
Heating Degree Days 19    
Moisture  
Dew Point 30 °F    
Average Humidity 53    
Maximum Humidity 76    
Minimum Humidity 37    
Precipitation  
Precipitation 0.00 in - - ()
Sea Level Pressure  
Sea Level Pressure 30.13 in    
Wind  
Wind Speed 11 mph (ENE)    
Max Wind Speed 18 mph    
Max Gust Speed 28 mph    
Visibility 10 miles    
Events      
Averages and records for this station are not official NWS values.
T = Trace of Precipitation, MM = Missing Value Source: NWS Daily Summary

Daily Weather History Graph

Daily Weather History Graph

Search for Another Location

Airport or City:

Trip Planner

Search our weather history database for the weather conditions in past years. The results will help you decide how hot, cold, wet, or windy it might be!

Date:

Astronomy

Apr. 27, 2014 Rise Set
Actual Time 6:35 AM EDT 8:29 PM EDT
Civil Twilight 6:04 AM EDT 8:59 PM EDT
Nautical Twilight 5:28 AM EDT 9:36 PM EDT
Astronomical Twilight 4:48 AM EDT 10:16 PM EDT
Moon 5:37 AM EDT (4/27) 7:00 PM EDT (4/27)
Length of Visible Light 14h 54m
Length of Day
13h 53m
Waning Crescent, 3% of the Moon is Illuminated
Apr 27
Waning Crescent
Apr 29
New
May 6
First Quarter
May 14
Full
May 21
Last Quarter

Hourly Weather History & Observations

Time (EDT) Temp. Windchill Dew Point Humidity Pressure Visibility Wind Dir Wind Speed Gust Speed Precip Events Conditions
12:53 AM 41.0 °F 33.9 °F 30.0 °F 65% 30.11 in 10.0 mi NE 12.7 mph - N/A   Clear
1:53 AM 39.0 °F 32.8 °F 30.0 °F 70% 30.14 in 10.0 mi ENE 9.2 mph - N/A   Clear
2:53 AM 35.1 °F 28.6 °F 28.0 °F 76% 30.12 in 10.0 mi NE 8.1 mph - N/A   Clear
3:53 AM 35.1 °F 29.3 °F 28.0 °F 76% 30.12 in 10.0 mi NNE 6.9 mph - N/A   Clear
4:53 AM 36.0 °F - 28.0 °F 73% 30.14 in 10.0 mi Calm Calm - N/A   Mostly Cloudy
5:53 AM 36.0 °F 33.3 °F 28.9 °F 76% 30.16 in 10.0 mi NNW 3.5 mph - N/A   Clear
6:53 AM 35.1 °F 32.2 °F 28.0 °F 76% 30.18 in 10.0 mi NNW 3.5 mph - N/A   Clear
8:53 AM 44.1 °F 38.1 °F 30.9 °F 60% 30.19 in 10.0 mi ENE 11.5 mph - N/A   Overcast
9:53 AM 48.0 °F - 28.0 °F 46% 30.18 in 10.0 mi ENE 15.0 mph - N/A   Overcast
10:53 AM 50.0 °F - 27.0 °F 41% 30.18 in 10.0 mi East 11.5 mph - N/A   Scattered Clouds
11:53 AM 50.0 °F - 28.0 °F 43% 30.17 in 10.0 mi East 12.7 mph - N/A   Overcast
12:53 PM 53.1 °F - 28.0 °F 38% 30.16 in 10.0 mi East 18.4 mph 23.0 mph N/A   Scattered Clouds
1:53 PM 55.0 °F - 30.9 °F 40% 30.13 in 10.0 mi ENE 17.3 mph 27.6 mph N/A   Clear
2:53 PM 54.0 °F - 30.9 °F 41% 30.13 in 10.0 mi ENE 15.0 mph 24.2 mph N/A   Mostly Cloudy
4:53 PM 57.9 °F - 33.1 °F 39% 30.11 in 10.0 mi East 17.3 mph 21.9 mph N/A   Clear
5:53 PM 55.9 °F - 30.0 °F 37% 30.09 in 10.0 mi ESE 15.0 mph - N/A   Clear
6:53 PM 54.0 °F - 30.0 °F 40% 30.10 in 10.0 mi East 13.8 mph - N/A   Clear
7:53 PM 52.0 °F - 30.0 °F 43% 30.10 in 10.0 mi East 16.1 mph - N/A   Clear
8:53 PM 51.1 °F - 28.0 °F 41% 30.11 in 10.0 mi East 9.2 mph - N/A   Clear
9:53 PM 51.1 °F - 30.9 °F 46% 30.11 in 10.0 mi ENE 12.7 mph - N/A   Clear
10:53 PM 50.0 °F - 32.0 °F 50% 30.13 in 10.0 mi ENE 11.5 mph - N/A   Clear
11:53 PM 48.0 °F - 32.0 °F 54% 30.09 in 10.0 mi ENE 12.7 mph - N/A   Clear